COSMOS 565

导读 | 豆包AI

COSMOS 565是苏联(现独联体CIS)“宇宙”号卫星系列中的一员,于1973年6月8日发射升空。“宇宙”号是世界上规模最大的卫星系列,涵盖科学研究、军事侦察、技术试验等多类任务,COSMOS 565延续了这一设计定位,或承担空间技术验证或对地观测相关任务,是苏联冷战时期航天活动的组成部分,为后续空间技术发展积累了关键数据。

基本信息
目录编号:
6676
目录名称:
COSMOS 565
国际标识:
1973-037B
轨道中心:
EARTH
卫星名称:
COSMOS 565
卫星全名:
--
卫星状态:
在轨 (已飞行19319 天)
发射日期:
1973-06-08 UTC
国别 :
俄罗斯(独联体) (CIS)
星等 :
--
轨道信息
数据来源 国际轨道数据
星历时间: 2026-04-30T13:33:40+0800
9小时前
查看轨道信息
半长轴: 7846.943km
偏心率: 0.0025703
轨道倾角: 74.019°
近地点辐角 1.883°
升交点赤经 69.425°
平近点角 64.755°
近地点: 1448.637km
远地点: 1488.975km
周期: 115.295分钟
每日圈数: 12.489702
详细信息
使用方式:
暂无
2D轨道图
3D轨道图
轨道高度分析图
轨道倾角分析图
轨道综合分析图
查看轨道综合分析图